Вернуться в каталог

STARLINK-4103

АктивенСвязьVLEO
NORAD 53141·PAYLOAD·🇺🇸 United States

Запущен Jul 17, 2022 с Cape Canaveral Space Force Station

Loading…

Ближайшие Пролёты (ближайшие 24 часа)

TLE

СвежийSource: CelesTrak SupGP

Эпоха: Sep 15, 2026, 02:30 UTC

1 53141C 22083K   26258.10465278 -.00010833  00000+0 -32004-3 0  2581
2 53141  53.1600  28.7172 0001047  96.6312 194.1075 15.34398739    17

Отслеживайте STARLINK-4103 в реальном времени с AllMySat

Download on the App Store